• In Belarus
  • List of Countries
  • For 7 days
  • Water Temperature
  • Satellite Maps
  • Weather Map
  • Weather Widgets
  • user-avatar
    Login

    Hourly Weather Mauritius

    Today, 23 May, Wednesday

    Time Temperature Precipitation Wind Pressure Humidity
    00:00 +23°C° 0.1 mm 8 mps 727 mmHg 80%
    01:00 +22°C° 0.1 mm 8 mps 727 mmHg 80%
    02:00 +22°C° 0.2 mm 8 mps 727 mmHg 80%
    03:00 +22°C° 0.2 mm 8 mps 727 mmHg 81%
    04:00 +22°C° 0.2 mm 8 mps 727 mmHg 81%
    05:00 +22°C° 0.2 mm 9 mps 727 mmHg 81%
    06:00 +22°C° 0.2 mm 9 mps 727 mmHg 80%
    07:00 +22°C° 0.2 mm 9 mps 728 mmHg 80%
    08:00 +23°C° 0.3 mm 9 mps 728 mmHg 79%
    09:00 +23°C° 0.3 mm 9 mps 728 mmHg 77%
    10:00 +23°C° 0.3 mm 9 mps 728 mmHg 75%
    11:00 +24°C° 0.3 mm 9 mps 728 mmHg 75%
    12:00 +24°C° 0.3 mm 9 mps 728 mmHg 75%
    13:00 +24°C° 0.3 mm 10 mps 728 mmHg 75%
    14:00 +24°C° 0.1 mm 9 mps 728 mmHg 75%
    15:00 +24°C° 0.1 mm 9 mps 727 mmHg 75%
    16:00 +23°C° 0.1 mm 9 mps 727 mmHg 75%
    17:00 +23°C° 0 mm 9 mps 727 mmHg 76%
    18:00 +23°C° 0 mm 9 mps 728 mmHg 77%
    19:00 +22°C° 0 mm 9 mps 728 mmHg 78%
    20:00 +22°C° 0 mm 9 mps 728 mmHg 77%
    21:00 +22°C° 0 mm 9 mps 728 mmHg 76%
    22:00 +22°C° 0 mm 9 mps 729 mmHg 75%
    23:00 +22°C° 0 mm 8 mps 728 mmHg 73%

    Tomorrow, 24 May, Thursday

    Time Temperature Precipitation Wind Pressure Humidity
    00:00 +22°C° 0 mm 8 mps 728 mmHg 71%
    01:00 +22°C° 0 mm 8 mps 728 mmHg 68%
    02:00 +22°C° 0.1 mm 8 mps 728 mmHg 72%
    03:00 +22°C° 0.1 mm 8 mps 728 mmHg 75%
    04:00 +22°C° 0.1 mm 8 mps 727 mmHg 79%
    05:00 +22°C° 0.3 mm 8 mps 727 mmHg 79%
    06:00 +22°C° 0.3 mm 8 mps 728 mmHg 80%
    07:00 +22°C° 0.3 mm 9 mps 728 mmHg 80%
    08:00 +22°C° 0.3 mm 9 mps 728 mmHg 79%
    09:00 +23°C° 0.3 mm 9 mps 728 mmHg 77%
    10:00 +23°C° 0.3 mm 9 mps 728 mmHg 76%
    11:00 +23°C° 0 mm 9 mps 728 mmHg 73%
    12:00 +24°C° 0 mm 9 mps 728 mmHg 71%
    13:00 +24°C° 0 mm 8 mps 727 mmHg 68%
    14:00 +24°C° 0 mm 8 mps 727 mmHg 69%
    15:00 +24°C° 0 mm 8 mps 727 mmHg 69%
    16:00 +24°C° 0 mm 8 mps 727 mmHg 69%
    17:00 +23°C° 0 mm 8 mps 727 mmHg 72%
    18:00 +23°C° 0 mm 8 mps 727 mmHg 74%
    19:00 +23°C° 0 mm 8 mps 727 mmHg 76%
    20:00 +23°C° 0 mm 8 mps 727 mmHg 76%
    21:00 +23°C° 0 mm 8 mps 727 mmHg 75%
    22:00 +22°C° 0 mm 8 mps 727 mmHg 75%
    23:00 +22°C° 0 mm 8 mps 727 mmHg 75%

    Day after tomorrow, 25 May, Friday

    Time Temperature Precipitation Wind Pressure Humidity
    00:00 +22°C° 0 mm 8 mps 727 mmHg 76%
    01:00 +22°C° 0 mm 8 mps 727 mmHg 76%
    02:00 +22°C° 0 mm 7 mps 727 mmHg 76%
    03:00 +22°C° 0 mm 7 mps 726 mmHg 76%
    04:00 +22°C° 0 mm 7 mps 726 mmHg 76%
    05:00 +22°C° 0.1 mm 7 mps 726 mmHg 78%
    06:00 +22°C° 0.1 mm 8 mps 726 mmHg 79%
    07:00 +22°C° 0.1 mm 8 mps 726 mmHg 81%
    08:00 +23°C° 0.1 mm 8 mps 727 mmHg 78%
    09:00 +23°C° 0.1 mm 8 mps 727 mmHg 76%
    10:00 +24°C° 0.1 mm 8 mps 727 mmHg 74%
    11:00 +23°C° 0.3 mm 8 mps 727 mmHg 76%
    12:00 +23°C° 0.3 mm 8 mps 726 mmHg 77%
    13:00 +23°C° 0.3 mm 8 mps 726 mmHg 79%
    14:00 +23°C° 0.2 mm 8 mps 726 mmHg 77%
    15:00 +23°C° 0.2 mm 8 mps 726 mmHg 76%
    16:00 +24°C° 0.2 mm 8 mps 725 mmHg 74%
    17:00 +23°C° 0.3 mm 8 mps 726 mmHg 76%
    18:00 +23°C° 0.3 mm 8 mps 726 mmHg 78%
    19:00 +23°C° 0.3 mm 8 mps 726 mmHg 79%
    20:00 +23°C° 0.3 mm 8 mps 726 mmHg 79%
    21:00 +23°C° 0.3 mm 9 mps 727 mmHg 79%
    22:00 +23°C° 0.3 mm 9 mps 727 mmHg 79%
    23:00 +23°C° 0.1 mm 9 mps 727 mmHg 79%

    26 May, Saturday

    Time Temperature Precipitation Wind Pressure Humidity
    00:00 +23°C° 0.1 mm 8 mps 727 mmHg 79%
    01:00 +22°C° 0.1 mm 8 mps 727 mmHg 79%
    02:00 +22°C° 0 mm 8 mps 726 mmHg 78%
    03:00 +22°C° 0 mm 8 mps 726 mmHg 77%
    04:00 +22°C° 0 mm 8 mps 726 mmHg 76%
    05:00 +22°C° 0 mm 7 mps 726 mmHg 77%
    06:00 +22°C° 0 mm 7 mps 726 mmHg 77%
    07:00 +22°C° 0 mm 7 mps 726 mmHg 78%
    08:00 +23°C° 0 mm 7 mps 727 mmHg 76%
    09:00 +23°C° 0 mm 7 mps 727 mmHg 74%
    10:00 +24°C° 0 mm 7 mps 727 mmHg 72%
    11:00 +24°C° 0 mm 6 mps 727 mmHg 71%
    12:00 +26°C° 0 mm 6 mps 726 mmHg 70%
    13:00 +26°C° 0 mm 6 mps 726 mmHg 68%
    14:00 +26°C° 0.1 mm 5 mps 726 mmHg 69%
    15:00 +25°C° 0.1 mm 5 mps 726 mmHg 70%
    16:00 +25°C° 0.1 mm 5 mps 725 mmHg 71%
    17:00 +25°C° 0.1 mm 5 mps 726 mmHg 74%
    18:00 +23°C° 0.1 mm 5 mps 726 mmHg 77%
    19:00 +23°C° 0.1 mm 5 mps 726 mmHg 79%
    20:00 +23°C° 0 mm 5 mps 726 mmHg 80%
    21:00 +23°C° 0 mm 5 mps 726 mmHg 80%
    22:00 +22°C° 0 mm 5 mps 727 mmHg 81%
    23:00 +22°C° 0 mm 4 mps 726 mmHg 81%

    27 May, Sunday

    Time Temperature Precipitation Wind Pressure Humidity
    00:00 +22°C° 0 mm 4 mps 726 mmHg 81%
    01:00 +22°C° 0 mm 4 mps 726 mmHg 82%
    02:00 +22°C° 0 mm 3 mps 726 mmHg 82%
    03:00 +22°C° 0 mm 3 mps 726 mmHg 81%
    04:00 +22°C° 0 mm 3 mps 725 mmHg 81%
    05:00 +22°C° 0 mm 3 mps 726 mmHg 81%
    06:00 +22°C° 0 mm 3 mps 726 mmHg 80%
    07:00 +22°C° 0 mm 3 mps 726 mmHg 80%
    08:00 +24°C° 0 mm 3 mps 726 mmHg 77%
    09:00 +25°C° 0 mm 3 mps 727 mmHg 73%
    10:00 +25°C° 0 mm 3 mps 727 mmHg 70%
    11:00 +26°C° 0 mm 3 mps 726 mmHg 70%
    12:00 +26°C° 0 mm 3 mps 726 mmHg 69%
    13:00 +26°C° 0 mm 3 mps 725 mmHg 69%
    14:00 +26°C° 0.2 mm 3 mps 725 mmHg 71%
    15:00 +25°C° 0.2 mm 3 mps 725 mmHg 72%
    16:00 +25°C° 0.2 mm 3 mps 725 mmHg 74%
    17:00 +25°C° 0.1 mm 3 mps 725 mmHg 76%
    18:00 +24°C° 0.1 mm 3 mps 725 mmHg 78%
    19:00 +24°C° 0.1 mm 3 mps 726 mmHg 80%
    20:00 +24°C° 0 mm 3 mps 726 mmHg 80%
    21:00 +24°C° 0 mm 3 mps 726 mmHg 81%
    22:00 +24°C° 0 mm 3 mps 726 mmHg 82%
    23:00 +22°C° 0 mm 3 mps 726 mmHg 82%

    28 May, Monday

    Time Temperature Precipitation Wind Pressure Humidity
    00:00 +22°C° 0 mm 3 mps 726 mmHg 82%
    01:00 +22°C° 0 mm 3 mps 725 mmHg 83%
    02:00 +23°C° 0.1 mm 2 mps 725 mmHg 83%
    03:00 +23°C° 0.1 mm 2 mps 725 mmHg 83%
    04:00 +23°C° 0.1 mm 2 mps 725 mmHg 83%
    05:00 +22°C° 0 mm 3 mps 725 mmHg 83%
    06:00 +22°C° 0 mm 3 mps 725 mmHg 83%
    07:00 +22°C° 0 mm 3 mps 726 mmHg 82%
    08:00 +24°C° 0 mm 3 mps 726 mmHg 80%
    09:00 +24°C° 0 mm 3 mps 726 mmHg 77%
    10:00 +25°C° 0 mm 4 mps 726 mmHg 74%
    11:00 +25°C° 0.1 mm 4 mps 726 mmHg 74%
    12:00 +25°C° 0.1 mm 4 mps 725 mmHg 74%
    13:00 +25°C° 0.1 mm 4 mps 725 mmHg 74%
    14:00 +25°C° 0.2 mm 4 mps 725 mmHg 74%
    15:00 +25°C° 0.2 mm 4 mps 725 mmHg 75%
    16:00 +25°C° 0.2 mm 4 mps 725 mmHg 75%
    17:00 +23°C° 0.1 mm 4 mps 725 mmHg 77%
    18:00 +23°C° 0.1 mm 4 mps 725 mmHg 79%
    19:00 +23°C° 0.1 mm 4 mps 725 mmHg 81%
    20:00 +22°C° 0.3 mm 4 mps 725 mmHg 82%
    21:00 +22°C° 0.3 mm 4 mps 726 mmHg 82%
    22:00 +22°C° 0.3 mm 4 mps 726 mmHg 83%
    23:00 +22°C° 0.2 mm 4 mps 726 mmHg 82%
    Show more